DW0841 Weather Reports


Display with metric or nautical units.
time (UTC)temp
F
wind
direction
speed
MPH
gust
MPH
rain 1hr
in
rain 24hr
in
rain mn
in
humidity
%
barometer
mb
20260905062117 52 0.0 2.0 0.04 0.25 0.25 92 993.1
20260905061117 53 0.0 1.0 0.05 0.25 0.25 92 993.0
20260905060118 53 0.0 0.0 0.08 0.25 0.25 92 993.0
20260905055117 52 0.0 1.0 0.13 0.25 0.25 92 993.0
20260905054137 52 225 2.0 3.0 0.15 0.24 0.24 92 993.2
20260905053118 52 0.0 0.0 0.16 0.22 0.22 92 993.0
20260905052117 52 0.0 0.0 0.17 0.21 0.21 92 993.0
20260905051138 52 0.0 0.0 0.16 0.20 0.20 92 992.9
20260905050117 52 0.0 0.0 0.14 0.17 0.17 92 992.9
20260905045118 52 0.0 0.0 0.09 0.12 0.12 92 993.1
20260905044118 52 0.0 0.0 0.06 0.09 0.09 92 993.0
20260905043117 52 0.0 0.0 0.03 0.06 0.06 92 992.9
20260905042118 52 0.0 0.0 0.02 0.05 0.05 92 992.9
20260905041117 52 0.0 0.0 0.02 0.05 0.05 91 992.9
20260905040117 52 0.0 0.0 0.00 0.03 0.03 91 993.0
20260905035117 53 0.0 0.0 0.00 0.03 0.03 91 993.0
20260905034117 53 0.0 0.0 0.00 0.03 0.03 91 993.1
20260905033117 53 0.0 0.0 0.00 0.03 0.03 91 993.5
20260905032117 52 0.0 0.0 0.00 0.03 0.03 91 993.5
20260905031118 52 0.0 0.0 0.00 0.03 0.03 91 993.6
20260905030118 52 0.0 0.0 0.00 0.03 0.03 91 993.7
20260905025117 52 0.0 0.0 0.00 0.03 0.03 91 994.2
20260905024118 52 0.0 0.0 0.00 0.03 0.03 91 994.4
20260905023138 52 0.0 0.0 0.00 0.03 0.03 91 994.7
20260905022117 52 0.0 0.0 0.00 0.03 0.03 91 995.1
20260905021117 52 0.0 0.0 0.00 0.03 0.03 91 995.5
20260905020117 52 0.0 0.0 0.00 0.03 0.03 90 995.9
20260905015117 52 0.0 0.0 0.00 0.03 0.03 90 996.1
20260905014118 52 0.0 0.0 0.00 0.03 0.03 90 996.2
20260905013117 52 0.0 0.0 0.00 0.03 0.03 90 996.5
20260905012117 52 0.0 0.0 0.01 0.03 0.03 90 996.6
20260905011117 52 0.0 0.0 0.01 0.03 0.03 91 996.7
20260905010118 52 0.0 1.0 0.01 0.03 0.03 91 997.0
20260905005117 52 0.0 0.0 0.01 0.03 0.03 91 997.3
20260905004138 52 0.0 0.0 0.01 0.03 0.03 91 997.7
20260905003157 52 0.0 0.0 0.01 0.03 0.03 91 997.9
20260905002137 52 0.0 0.0 0.00 0.02 0.02 91 997.9
20260905001117 51 0.0 0.0 0.00 0.02 0.02 91 998.0
20260905000117 51 0.0 0.0 0.00 0.02 0.02 91 998.2
20260904235117 51 0.0 0.0 0.00 0.02 0.02 91 998.4
20260904234117 50 0.0 0.0 0.00 0.02 0.02 91 998.7
20260904233117 50 0.0 0.0 0.01 0.02 0.02 91 999.0
20260904232138 50 0.0 0.0 0.01 0.02 0.02 91 999.2
20260904231117 50 0.0 0.0 0.01 0.02 0.02 91 999.1
20260904230117 50 0.0 0.0 0.02 0.02 0.02 91 999.4
20260904225117 50 0.0 0.0 0.02 0.02 0.02 91 999.5
20260904224118 49 0.0 0.0 0.02 0.02 0.02 90 999.5
20260904223117 50 0.0 0.0 0.01 0.02 0.02 90 999.6
20260904222117 50 0.0 0.0 0.02 0.02 0.02 90 999.7
20260904221137 49 0.0 0.0 0.02 0.02 0.02 90 999.8
20260904220117 49 0.0 0.0 0.01 0.01 0.01 89 1000.0
20260904215117 49 0.0 0.0 0.01 0.01 0.01 88 1000.0
20260904214117 49 0.0 0.0 0.01 0.01 0.01 87 1000.0
20260904213117 49 0.0 0.0 0.01 0.01 0.01 86 1000.2
20260904212137 49 0.0 0.0 0.00 0.00 0.00 85 1000.2
20260904211117 49 0.0 0.0 0.00 0.00 0.00 85 1000.2
20260904210117 49 0.0 0.0 0.00 0.00 0.00 84 1000.2
20260904205117 49 0.0 0.0 0.00 0.00 0.00 84 1000.3
20260904204117 49 0.0 0.0 0.00 0.00 0.00 84 1000.3
20260904203117 49 0.0 0.0 0.00 0.00 0.00 83 1000.2
20260904202117 50 0.0 0.0 0.00 0.00 0.00 83 1000.1
20260904201118 50 0.0 0.0 0.00 0.00 0.00 83 1000.5
20260904200117 50 0.0 0.0 0.00 0.00 0.00 82 1000.5
20260904195118 50 0.0 0.0 0.00 0.00 0.00 81 1000.6
20260904194137 50 0.0 0.0 0.00 0.00 0.00 79 1000.7
20260904193118 51 0.0 0.0 0.00 0.00 0.00 79 1000.8
20260904192137 51 0.0 0.0 0.00 0.00 0.00 79 1000.9
20260904191117 51 0.0 0.0 0.00 0.00 0.00 79 1001.2
20260904190117 52 0.0 1.0 0.00 0.00 0.00 77 1001.1
20260904185118 52 0.0 0.0 0.00 0.00 0.00 78 1001.3
20260904184117 51 0.0 1.0 0.00 0.00 0.00 77 1001.4
20260904183117 52 270 1.0 2.0 0.00 0.00 0.00 77 1001.3
20260904182117 52 0 1.0 2.0 0.00 0.00 0.00 76 1001.3
20260904181117 52 0.0 0.0 0.00 0.00 0.00 76 1001.3
20260904180117 52 0 1.0 2.0 0.00 0.00 0.00 77 1001.5
20260904175117 52 0.0 1.0 0.00 0.00 0.00 76 1001.5
20260904174117 52 0.0 0.0 0.00 0.00 0.00 76 1001.8
20260904173117 52 0.0 0.0 0.00 0.00 0.00 75 1001.4
20260904172117 52 0.0 0.0 0.00 0.00 0.00 75 1001.4
20260904171117 52 293 1.0 3.0 0.00 0.00 0.00 75 1001.4
20260904170158 52 0.0 1.0 0.00 0.00 0.00 74 1001.7
20260904165117 53 23 1.0 3.0 0.00 0.00 0.00 74 1001.8
20260904164117 53 0.0 1.0 0.00 0.00 0.00 73 1002.1
20260904163117 53 315 1.0 3.0 0.00 0.00 0.00 73 1002.2
20260904162117 52 0.0 1.0 0.00 0.00 0.00 73 1002.5
20260904161117 52 0 1.0 2.0 0.00 0.00 0.00 73 1002.7
20260904160117 52 338 1.0 2.0 0.00 0.00 0.00 73 1002.8
20260904155117 51 23 2.0 7.0 0.00 0.00 0.00 75 1002.9
20260904154117 51 0.0 1.0 0.00 0.00 0.00 74 1003.1
20260904153117 52 0.0 0.0 0.00 0.00 0.00 72 1003.3
20260904152157 52 0 1.0 3.0 0.00 0.00 0.00 72 1003.2
20260904151117 52 0.0 1.0 0.00 0.00 0.00 73 1003.3
20260904150117 51 0 1.0 3.0 0.00 0.00 0.00 74 1003.3
20260904145117 51 293 1.0 3.0 0.00 0.00 0.00 74 1003.3
20260904144117 51 0.0 1.0 0.00 0.00 0.00 73 1003.3
20260904143117 51 0.0 1.0 0.00 0.00 0.00 73 1003.3
20260904142117 52 0.0 0.0 0.00 0.00 0.00 72 1003.3
20260904141117 52 23 1.0 3.0 0.00 0.00 0.00 71 1003.5
20260904140117 52 23 3.0 7.0 0.00 0.00 0.00 71 1003.7
20260904135116 52 68 4.0 10.0 0.00 0.00 0.00 71 1003.6
20260904134116 52 0.0 1.0 0.00 0.00 0.00 71 1003.7
20260904133117 52 0.0 1.0 0.00 0.00 0.00 71 1003.8
20260904132116 52 0 1.0 6.0 0.00 0.00 0.00 70 1003.8
20260904131116 52 23 4.0 6.0 0.00 0.00 0.00 70 1003.8
20260904130116 52 0 2.0 8.0 0.00 0.00 0.00 71 1004.0
20260904125116 52 23 2.0 4.0 0.00 0.00 0.00 71 1004.1
20260904124116 52 315 2.0 4.0 0.00 0.00 0.00 71 1004.4
20260904123117 51 315 2.0 3.0 0.00 0.00 0.00 71 1004.4
20260904122137 51 270 2.0 4.0 0.00 0.00 0.00 71 1004.6
20260904121116 51 293 2.0 5.0 0.00 0.00 0.00 70 1004.8
20260904120116 51 23 1.0 2.0 0.00 0.00 0.00 70 1004.6
20260904115216 51 315 2.0 4.0 0.00 0.00 0.00 70 1004.8
20260904094218 49 23 2.0 3.0 0.00 0.00 0.00 75 1005.2
20260904093218 50 90 1.0 2.0 0.00 0.00 0.00 76 1005.0
20260904092218 50 270 1.0 2.0 0.00 0.00 0.00 75 1005.4
20260904091218 50 315 2.0 4.0 0.00 0.00 0.00 75 1005.5
20260904090218 51 45 5.0 11.0 0.00 0.00 0.00 74 1005.3
20260904085218 53 0.0 0.0 0.00 0.00 0.00 65 1005.8
20260904084218 53 293 1.0 3.0 0.00 0.00 0.00 63 1005.3
20260904083217 53 0.0 1.0 0.00 0.00 0.00 62 1005.0
20260904082218 53 0 2.0 5.0 0.00 0.00 0.00 62 1005.0
20260904081217 53 0.0 1.0 0.00 0.00 0.00 62 1004.9
20260904080238 53 0.0 1.0 0.00 0.02 0.00 61 1005.0
20260904075218 54 0.0 0.0 0.00 0.02 0.00 59 1005.0
20260904074218 54 0.0 2.0 0.00 0.03 0.00 59 1004.7
20260904073218 55 0.0 1.0 0.00 0.03 0.00 57 1004.6
20260904072218 55 0.0 1.0 0.00 0.03 0.00 53 1004.6
20260904071218 55 225 2.0 4.0 0.00 0.03 0.00 53 1004.8
20260904070217 55 225 1.0 2.0 0.00 0.03 0.00 51 1004.8
20260904065238 56 248 1.0 3.0 0.00 0.03 0.00 53 1004.7
20260904064218 57 293 3.0 6.0 0.00 0.03 0.00 50 1004.8
20260904063218 57 315 4.0 9.0 0.00 0.03 0.00 49 1004.9